User: anonymous   Login
Location: Berlin
(52.5171°N, 13.3759°E)
Time: 02:17:29
(UTC+01:00)
Language:

ISS - Orbit

View from above orbital plane
View from above orbital plane
View from above satellite
View from above satellite

Ground track
Ground track

The orbit data is extracted from the following two-line orbital elements,

1 25544U 98067A   18049.24332618  .00016717  00000-0  10270-3 0  9020
2 25544  51.6375 251.6829 0002989 106.9573 253.1907 15.54092272 20018
Epoch (UTC): 18 February 2018 05:50:23
Eccentricity: 0.0002989
inclination: 51.6375°
perigee height: 403 km
apogee height: 407 km
right ascension of ascending node: 251.6829°
argument of perigee: 106.9573°
revolutions per day: 15.54092272
mean anomaly at epoch: 253.1907°
orbit number at epoch: 2001

The dashed part of the orbit path shows where the satellite is in the earth's shadow,  

DLR